Station History

Weather Underground - logo

Station Historical Data
Daily Summary for August 20, 2017 Units:  English    Metric   Both
« Previous Day
Next Day »
Daily Weekly Monthly Yearly Custom
  High: Low: Average:
Temperature: 96.4 °F 68.8 °F 82.2 °F
Dew Point: 68.2 °F 60.0 °F 63.7 °F
Humidity: 75 % 34 % 56 %
Wind Speed: 4.6 mph 0.0 mph 1.3 mph
Wind Gust: 4.6 mph - -
Wind:- - SW
Pressure: 29.81 in 29.70 in -
Precipitation: 0.00 in    
Historical Graphs
 
 
Tabular Data for August 20, 2017
Time Temperature Dew Point Pressure Wind Wind Speed Wind Gust Humidity Rainfall Rate (Hourly)
00:04 77.7 °F 64.5 °F 29.75 in ESE 1.2 mph 1.2 mph 64 % 0.00 in
00:09 77.6 °F 64.5 °F 29.75 in Calm   0.2 mph 64 % 0.00 in
00:13 77.5 °F 63.9 °F 29.75 in Calm     63 % 0.00 in
00:19 77.4 °F 63.8 °F 29.75 in SE 1.2 mph   63 % 0.00 in
00:24 77.2 °F 63.6 °F 29.75 in Calm     63 % 0.00 in
00:29 77.1 °F 63.5 °F 29.75 in Calm     63 % 0.00 in
00:34 76.9 °F 63.3 °F 29.75 in East 1.2 mph 1.2 mph 63 % 0.00 in
00:39 76.7 °F 63.6 °F 29.75 in ESE 1.2 mph 1.2 mph 64 % 0.00 in
00:44 76.4 °F 63.3 °F 29.76 in Calm     64 % 0.00 in
00:49 76.3 °F 63.2 °F 29.76 in Calm     64 % 0.00 in
00:54 76.2 °F 63.1 °F 29.76 in Calm     64 % 0.00 in
00:59 76.0 °F 63.4 °F 29.76 in Calm     65 % 0.00 in
01:04 75.8 °F 63.2 °F 29.76 in Calm     65 % 0.00 in
01:09 75.6 °F 63.4 °F 29.75 in SE 1.2 mph 1.2 mph 66 % 0.00 in
01:14 75.5 °F 63.3 °F 29.75 in SE 1.2 mph   66 % 0.00 in
01:19 75.3 °F 62.7 °F 29.75 in SE 1.2 mph   65 % 0.00 in
01:24 75.2 °F 62.6 °F 29.75 in Calm     65 % 0.00 in
01:29 75.1 °F 62.5 °F 29.75 in ESE 1.2 mph 1.2 mph 65 % 0.00 in
01:34 75.1 °F 62.5 °F 29.75 in Calm     65 % 0.00 in
01:39 75.1 °F 62.5 °F 29.75 in Calm     65 % 0.00 in
01:44 75.0 °F 62.4 °F 29.75 in Calm     65 % 0.00 in
01:49 74.8 °F 62.2 °F 29.75 in Calm     65 % 0.00 in
01:54 74.7 °F 62.1 °F 29.75 in Calm     65 % 0.00 in
01:59 74.5 °F 62.4 °F 29.75 in Calm     66 % 0.00 in
02:04 74.2 °F 62.5 °F 29.75 in Calm     67 % 0.00 in
02:09 74.1 °F 62.4 °F 29.75 in Calm     67 % 0.00 in
02:14 73.9 °F 62.2 °F 29.75 in Calm     67 % 0.00 in
02:19 73.9 °F 62.2 °F 29.75 in Calm     67 % 0.00 in
02:24 73.8 °F 62.2 °F 29.75 in Calm     67 % 0.00 in
02:29 73.9 °F 62.2 °F 29.75 in ESE 1.2 mph   67 % 0.00 in
02:34 73.8 °F 62.6 °F 29.75 in Calm     68 % 0.00 in
02:39 73.6 °F 62.0 °F 29.75 in Calm     67 % 0.00 in
02:44 73.6 °F 62.4 °F 29.75 in Calm     68 % 0.00 in
02:49 73.5 °F 61.9 °F 29.75 in Calm     67 % 0.00 in
02:54 73.5 °F 61.9 °F 29.75 in Calm     67 % 0.00 in
02:59 73.4 °F 61.8 °F 29.75 in Calm     67 % 0.00 in
03:04 73.4 °F 61.8 °F 29.75 in Calm     67 % 0.00 in
03:09 73.3 °F 61.7 °F 29.75 in Calm     67 % 0.00 in
03:14 73.1 °F 62.3 °F 29.75 in Calm     69 % 0.00 in
03:19 72.7 °F 61.9 °F 29.75 in Calm     69 % 0.00 in
03:24 72.4 °F 62.1 °F 29.75 in Calm     70 % 0.00 in
03:29 72.2 °F 61.9 °F 29.75 in Calm     70 % 0.00 in
03:34 72.0 °F 62.1 °F 29.75 in Calm     71 % 0.00 in
03:39 71.9 °F 62.0 °F 29.75 in Calm     71 % 0.00 in
03:44 71.8 °F 61.9 °F 29.75 in Calm     71 % 0.00 in
03:49 71.7 °F 61.8 °F 29.75 in SE 1.2 mph 1.2 mph 71 % 0.00 in
03:54 71.5 °F 61.6 °F 29.75 in Calm     71 % 0.00 in
03:59 71.3 °F 61.4 °F 29.75 in Calm     71 % 0.00 in
04:04 71.2 °F 61.3 °F 29.75 in SE 1.2 mph 1.2 mph 71 % 0.00 in
04:09 71.2 °F 61.7 °F 29.75 in SE 1.2 mph   72 % 0.00 in
04:14 71.0 °F 61.5 °F 29.75 in SE 1.2 mph   72 % 0.00 in
04:19 70.8 °F 61.3 °F 29.75 in Calm   0.1 mph 72 % 0.00 in
04:24 70.7 °F 61.2 °F 29.75 in Calm     72 % 0.00 in
04:29 70.6 °F 61.1 °F 29.75 in SE 1.2 mph   72 % 0.00 in
04:34 70.5 °F 61.0 °F 29.75 in Calm     72 % 0.00 in
04:39 70.4 °F 60.9 °F 29.76 in ENE 2.3 mph 2.3 mph 72 % 0.00 in
04:44 70.4 °F 60.9 °F 29.76 in ENE 1.2 mph   72 % 0.00 in
04:49 70.3 °F 60.8 °F 29.76 in Calm     72 % 0.00 in
04:54 70.2 °F 60.7 °F 29.76 in Calm     72 % 0.00 in
04:59 70.2 °F 60.7 °F 29.76 in Calm     72 % 0.00 in
05:04 70.1 °F 60.7 °F 29.76 in Calm     72 % 0.00 in
05:09 70.0 °F 60.6 °F 29.76 in Calm     72 % 0.00 in
05:14 70.1 °F 60.3 °F 29.76 in ENE 1.2 mph   71 % 0.00 in
05:19 70.0 °F 60.6 °F 29.76 in Calm     72 % 0.00 in
05:24 69.9 °F 60.5 °F 29.76 in Calm     72 % 0.00 in
05:29 69.8 °F 60.4 °F 29.76 in Calm     72 % 0.00 in
05:34 69.8 °F 60.8 °F 29.77 in Calm     73 % 0.00 in
05:40 69.7 °F 60.7 °F 29.77 in Calm     73 % 0.00 in
05:45 69.6 °F 60.6 °F 29.77 in Calm     73 % 0.00 in
05:50 69.6 °F 60.6 °F 29.77 in Calm     73 % 0.00 in
05:54 69.6 °F 60.6 °F 29.77 in Calm     73 % 0.00 in
05:59 69.5 °F 60.1 °F 29.77 in Calm     72 % 0.00 in
06:00 69.5 °F 60.1 °F 29.77 in Calm     72 % 0.00 in
06:05 69.5 °F 60.1 °F 29.77 in Calm     72 % 0.00 in
06:10 69.4 °F 60.0 °F 29.78 in Calm     72 % 0.00 in
06:15 69.4 °F 60.0 °F 29.78 in ENE 1.2 mph 1.2 mph 72 % 0.00 in
06:20 69.3 °F 60.3 °F 29.78 in Calm     73 % 0.00 in
06:25 69.2 °F 60.2 °F 29.78 in Calm     73 % 0.00 in
06:30 69.0 °F 60.0 °F 29.78 in Calm     73 % 0.00 in
06:35 69.0 °F 60.7 °F 29.78 in Calm     75 % 0.00 in
06:40 68.9 °F 60.6 °F 29.78 in Calm     75 % 0.00 in
06:45 68.8 °F 60.6 °F 29.79 in Calm     75 % 0.00 in
06:50 68.9 °F 60.6 °F 29.79 in Calm     75 % 0.00 in
06:55 69.1 °F 60.8 °F 29.79 in Calm     75 % 0.00 in
07:00 69.3 °F 61.0 °F 29.79 in Calm     75 % 0.00 in
07:05 69.2 °F 60.6 °F 29.79 in Calm     74 % 0.00 in
07:10 69.3 °F 60.7 °F 29.79 in Calm     74 % 0.00 in
07:15 69.6 °F 61.3 °F 29.79 in Calm     75 % 0.00 in
07:20 69.8 °F 61.5 °F 29.80 in Calm     75 % 0.00 in
07:25 70.0 °F 61.7 °F 29.80 in ENE 1.0 mph   75 % 0.00 in
07:30 70.3 °F 61.6 °F 29.80 in ENE 1.2 mph 1.2 mph 74 % 0.00 in
07:35 70.6 °F 61.9 °F 29.80 in ENE 2.3 mph 2.3 mph 74 % 0.00 in
07:40 71.2 °F 62.1 °F 29.80 in ENE 2.0 mph 2.0 mph 73 % 0.00 in
07:45 72.0 °F 62.5 °F 29.80 in SE 1.0 mph 1.0 mph 72 % 0.00 in
07:50 72.6 °F 62.7 °F 29.80 in SSE 1.2 mph   71 % 0.00 in
07:55 73.3 °F 62.9 °F 29.80 in SSE 1.0 mph 1.0 mph 70 % 0.00 in
08:00 74.1 °F 63.7 °F 29.80 in Calm     70 % 0.00 in
08:05 74.8 °F 62.7 °F 29.80 in SE 1.2 mph 1.2 mph 66 % 0.00 in
08:10 75.3 °F 63.6 °F 29.80 in SSE 1.2 mph 1.2 mph 67 % 0.00 in
08:15 75.4 °F 63.2 °F 29.81 in SSE 1.2 mph 1.2 mph 66 % 0.00 in
08:20 75.8 °F 63.2 °F 29.80 in South 1.2 mph 1.2 mph 65 % 0.00 in
08:25 76.1 °F 63.5 °F 29.80 in ESE 1.2 mph   65 % 0.00 in
08:30 76.7 °F 63.2 °F 29.80 in SE 2.3 mph 2.3 mph 63 % 0.00 in
08:35 76.9 °F 63.3 °F 29.81 in South 2.3 mph 2.3 mph 63 % 0.00 in
08:40 77.5 °F 63.0 °F 29.81 in East 1.2 mph 1.2 mph 61 % 0.00 in
08:45 77.9 °F 63.8 °F 29.81 in SE 1.2 mph 1.2 mph 62 % 0.00 in
08:50 78.0 °F 63.0 °F 29.81 in SSE 1.2 mph 1.2 mph 60 % 0.00 in
08:55 78.1 °F 62.6 °F 29.81 in ESE 2.3 mph 2.3 mph 59 % 0.00 in
09:00 78.7 °F 63.2 °F 29.81 in SE 1.2 mph 1.3 mph 59 % 0.00 in
09:05 79.0 °F 63.0 °F 29.81 in SE 3.5 mph 3.5 mph 58 % 0.00 in
09:10 79.3 °F 62.7 °F 29.81 in South 3.5 mph 3.5 mph 57 % 0.00 in
09:15 79.7 °F 63.6 °F 29.81 in SSE 1.2 mph 1.2 mph 58 % 0.00 in
09:20 80.5 °F 63.4 °F 29.81 in ESE 3.5 mph 3.5 mph 56 % 0.00 in
09:25 80.6 °F 63.5 °F 29.81 in South 3.0 mph 3.0 mph 56 % 0.00 in
09:30 80.9 °F 63.7 °F 29.81 in South 3.5 mph 3.5 mph 56 % 0.00 in
09:35 81.4 °F 63.7 °F 29.81 in SE 2.3 mph 2.3 mph 55 % 0.00 in
09:40 81.6 °F 63.9 °F 29.81 in SE 3.5 mph 3.5 mph 55 % 0.00 in
09:45 82.0 °F 64.8 °F 29.81 in SE 3.5 mph 3.5 mph 56 % 0.00 in
09:50 82.2 °F 64.4 °F 29.81 in SE 3.5 mph 3.5 mph 55 % 0.00 in
09:55 82.7 °F 64.9 °F 29.81 in ESE 1.2 mph 1.2 mph 55 % 0.00 in
10:00 83.2 °F 64.8 °F 29.81 in SSE 3.5 mph 3.5 mph 54 % 0.00 in
10:05 83.8 °F 65.9 °F 29.81 in SSE 1.2 mph 1.2 mph 55 % 0.00 in
10:11 84.5 °F 65.5 °F 29.81 in ESE 3.0 mph 3.0 mph 53 % 0.00 in
10:16 84.8 °F 65.8 °F 29.81 in SSE 3.5 mph 3.5 mph 53 % 0.00 in
10:21 84.7 °F 66.2 °F 29.81 in ESE 1.2 mph   54 % 0.00 in
10:26 85.1 °F 65.5 °F 29.81 in SSE 3.5 mph 3.5 mph 52 % 0.00 in
10:31 85.3 °F 65.7 °F 29.81 in North 3.0 mph 3.0 mph 52 % 0.00 in
10:36 85.3 °F 66.2 °F 29.81 in WNW 1.2 mph   53 % 0.00 in
10:41 85.5 °F 66.4 °F 29.81 in North 2.3 mph   53 % 0.00 in
10:46 86.0 °F 65.8 °F 29.80 in NE 1.2 mph 1.2 mph 51 % 0.00 in
10:51 86.7 °F 66.4 °F 29.80 in SE 2.3 mph 2.3 mph 51 % 0.00 in
10:56 86.8 °F 67.1 °F 29.80 in SSE 2.3 mph 2.3 mph 52 % 0.00 in
11:01 87.1 °F 66.8 °F 29.80 in SSE 2.3 mph 2.3 mph 51 % 0.00 in
11:06 87.5 °F 65.4 °F 29.80 in NNE 1.2 mph 1.2 mph 48 % 0.00 in
11:11 87.3 °F 67.0 °F 29.80 in NW 1.2 mph 1.2 mph 51 % 0.00 in
11:16 87.4 °F 65.9 °F 29.80 in NNW 2.3 mph 2.3 mph 49 % 0.00 in
11:21 87.9 °F 65.8 °F 29.79 in West 2.3 mph 2.3 mph 48 % 0.00 in
11:26 87.9 °F 65.8 °F 29.79 in NNW 2.3 mph 2.3 mph 48 % 0.00 in
11:31 88.3 °F 65.5 °F 29.79 in WNW 3.5 mph 3.5 mph 47 % 0.00 in
11:36 88.9 °F 64.2 °F 29.79 in NW 2.3 mph 2.3 mph 44 % 0.00 in
11:41 89.4 °F 67.7 °F 29.79 in North 2.3 mph 2.3 mph 49 % 0.00 in
11:46 89.9 °F 67.6 °F 29.79 in ESE 3.5 mph 3.5 mph 48 % 0.00 in
11:51 90.1 °F 64.6 °F 29.79 in North 1.2 mph 1.2 mph 43 % 0.00 in
11:56 90.1 °F 63.2 °F 29.78 in NW 3.5 mph 3.5 mph 41 % 0.00 in
12:01 90.0 °F 63.8 °F 29.78 in NW 2.3 mph 2.3 mph 42 % 0.00 in
12:06 89.9 °F 65.1 °F 29.78 in North 2.3 mph 2.3 mph 44 % 0.00 in
12:11 90.1 °F 63.2 °F 29.78 in NW 2.3 mph 2.3 mph 41 % 0.00 in
12:16 90.1 °F 65.2 °F 29.78 in NW 2.3 mph 2.3 mph 44 % 0.00 in
12:21 90.2 °F 62.6 °F 29.78 in NW 3.5 mph 3.5 mph 40 % 0.00 in
12:26 90.6 °F 64.4 °F 29.78 in SE 3.5 mph 3.5 mph 42 % 0.00 in
12:31 90.8 °F 63.9 °F 29.78 in NNW 2.3 mph 2.3 mph 41 % 0.00 in
12:37 91.4 °F 64.4 °F 29.77 in SSE 1.2 mph   41 % 0.00 in
12:42 92.1 °F 64.3 °F 29.77 in SSW 4.6 mph 4.6 mph 40 % 0.00 in
12:47 92.2 °F 63.7 °F 29.77 in WNW 3.5 mph 3.5 mph 39 % 0.00 in
12:52 91.8 °F 63.3 °F 29.77 in North 3.5 mph 3.5 mph 39 % 0.00 in
12:57 91.8 °F 63.3 °F 29.77 in NW 1.2 mph 1.2 mph 39 % 0.00 in
13:02 91.8 °F 64.0 °F 29.77 in East 1.2 mph 1.2 mph 40 % 0.00 in
13:07 92.0 °F 64.2 °F 29.77 in NW 3.5 mph 3.5 mph 40 % 0.00 in
13:12 91.7 °F 64.0 °F 29.76 in NNW 3.5 mph 3.5 mph 40 % 0.00 in
13:17 91.5 °F 62.3 °F 29.76 in NNW 3.5 mph 3.5 mph 38 % 0.00 in
13:22 91.6 °F 62.4 °F 29.76 in West 2.3 mph 2.3 mph 38 % 0.00 in
13:27 92.1 °F 62.1 °F 29.76 in NW 1.2 mph 1.2 mph 37 % 0.00 in
13:32 92.8 °F 64.9 °F 29.76 in ESE 2.3 mph 2.3 mph 40 % 0.00 in
13:37 93.2 °F 61.5 °F 29.75 in South 2.3 mph 2.3 mph 35 % 0.00 in
13:42 93.4 °F 62.5 °F 29.75 in WNW 3.5 mph 3.5 mph 36 % 0.00 in
13:47 93.1 °F 62.2 °F 29.75 in West 3.5 mph 3.5 mph 36 % 0.00 in
13:52 92.8 °F 63.5 °F 29.75 in NW 3.5 mph 3.5 mph 38 % 0.00 in
13:57 93.1 °F 63.0 °F 29.75 in WNW 2.3 mph 2.3 mph 37 % 0.00 in
14:02 93.8 °F 62.8 °F 29.75 in ESE 3.5 mph 3.5 mph 36 % 0.00 in
14:07 94.6 °F 62.7 °F 29.74 in ESE 1.2 mph 1.2 mph 35 % 0.00 in
14:12 94.9 °F 62.1 °F 29.74 in SSE 1.2 mph 1.2 mph 34 % 0.00 in
14:17 94.7 °F 62.0 °F 29.74 in WNW 3.5 mph 3.5 mph 34 % 0.00 in
14:22 94.6 °F 62.7 °F 29.74 in East 2.3 mph 2.3 mph 35 % 0.00 in
14:27 94.8 °F 62.1 °F 29.73 in West 3.5 mph 3.5 mph 34 % 0.00 in
14:32 94.7 °F 63.6 °F 29.73 in NW 3.5 mph 3.5 mph 36 % 0.00 in
14:37 95.0 °F 62.2 °F 29.73 in SSW 2.3 mph 2.3 mph 34 % 0.00 in
14:42 95.2 °F 64.8 °F 29.73 in SSE 1.2 mph 1.2 mph 37 % 0.00 in
14:47 95.8 °F 62.9 °F 29.72 in SSE 2.3 mph 2.3 mph 34 % 0.00 in
14:52 96.4 °F 63.5 °F 29.72 in WSW 3.5 mph 3.5 mph 34 % 0.00 in
14:57 96.4 °F 63.5 °F 29.72 in NNW 2.3 mph 2.3 mph 34 % 0.00 in
15:02 95.6 °F 63.6 °F 29.72 in NNW 3.5 mph 3.5 mph 35 % 0.00 in
15:07 95.1 °F 62.3 °F 29.72 in WNW 1.2 mph 1.2 mph 34 % 0.00 in
15:12 95.3 °F 64.9 °F 29.72 in SE 3.5 mph 3.5 mph 37 % 0.00 in
15:17 95.8 °F 62.9 °F 29.71 in WNW 2.3 mph 2.3 mph 34 % 0.00 in
15:22 95.4 °F 62.6 °F 29.71 in WNW 3.5 mph 3.5 mph 34 % 0.00 in
15:27 95.4 °F 64.2 °F 29.71 in NW 3.5 mph 3.5 mph 36 % 0.00 in
15:32 95.2 °F 63.2 °F 29.71 in WNW 3.5 mph 3.5 mph 35 % 0.00 in
15:37 95.1 °F 63.1 °F 29.71 in NE 3.5 mph 3.5 mph 35 % 0.00 in
15:42 95.2 °F 64.0 °F 29.70 in NW 2.3 mph 2.3 mph 36 % 0.00 in
15:47 94.7 °F 62.8 °F 29.70 in NNW 4.6 mph 4.6 mph 35 % 0.00 in
15:52 94.4 °F 62.5 °F 29.70 in West 3.5 mph 3.5 mph 35 % 0.00 in
15:57 94.5 °F 61.8 °F 29.70 in NW 3.5 mph 3.5 mph 34 % 0.00 in
16:02 94.7 °F 63.6 °F 29.70 in NW 2.3 mph 2.3 mph 36 % 0.00 in
16:07 94.7 °F 62.8 °F 29.70 in NW 3.5 mph 3.5 mph 35 % 0.00 in
16:12 94.5 °F 63.4 °F 29.70 in NW 3.5 mph 3.5 mph 36 % 0.00 in
16:17 94.3 °F 63.2 °F 29.70 in WNW 3.5 mph 3.5 mph 36 % 0.00 in
16:22 94.4 °F 64.1 °F 29.70 in NW 4.6 mph 4.6 mph 37 % 0.00 in
16:27 94.5 °F 63.4 °F 29.70 in North 4.6 mph 4.6 mph 36 % 0.00 in
16:32 94.4 °F 62.5 °F 29.70 in WNW 2.3 mph 2.3 mph 35 % 0.00 in
16:38 94.4 °F 63.3 °F 29.70 in NNW 4.6 mph 4.6 mph 36 % 0.00 in
16:43 94.7 °F 62.8 °F 29.70 in NW 3.5 mph 3.5 mph 35 % 0.00 in
16:48 94.7 °F 62.8 °F 29.70 in NW 3.5 mph 3.5 mph 35 % 0.00 in
16:53 94.2 °F 62.4 °F 29.70 in West 3.5 mph 3.5 mph 35 % 0.00 in
16:58 93.8 °F 62.8 °F 29.70 in NW 3.5 mph 3.5 mph 36 % 0.00 in
17:03 93.3 °F 62.4 °F 29.70 in NW 3.5 mph 3.5 mph 36 % 0.00 in
17:08 93.0 °F 62.9 °F 29.70 in NW 3.5 mph 3.5 mph 37 % 0.00 in
17:13 93.2 °F 63.8 °F 29.70 in NNW 4.6 mph 4.6 mph 38 % 0.00 in
17:18 93.4 °F 64.7 °F 29.70 in WNW 3.5 mph 3.5 mph 39 % 0.00 in
17:23 93.4 °F 64.0 °F 29.70 in NW 2.3 mph 2.3 mph 38 % 0.00 in
17:28 93.6 °F 64.2 °F 29.70 in NW 3.5 mph 3.5 mph 38 % 0.00 in
17:33 93.5 °F 63.3 °F 29.70 in WNW 2.3 mph 2.3 mph 37 % 0.00 in
17:38 93.2 °F 63.1 °F 29.70 in NNW 3.5 mph 3.5 mph 37 % 0.00 in
17:43 92.7 °F 63.4 °F 29.70 in NW 2.3 mph 2.3 mph 38 % 0.00 in
17:48 92.4 °F 63.1 °F 29.70 in NW 3.5 mph 3.5 mph 38 % 0.00 in
17:53 92.2 °F 63.7 °F 29.70 in WNW 3.5 mph 3.5 mph 39 % 0.00 in
17:55 92.3 °F 64.5 °F 29.70 in NW 2.3 mph 2.3 mph 40 % 0.00 in
18:00 92.3 °F 63.8 °F 29.70 in NW 2.3 mph 2.3 mph 39 % 0.00 in
18:05 92.0 °F 63.5 °F 29.70 in NW 2.3 mph 2.3 mph 39 % 0.00 in
18:10 91.7 °F 63.2 °F 29.70 in NW 3.5 mph 3.5 mph 39 % 0.00 in
18:15 91.4 °F 63.7 °F 29.70 in WNW 2.3 mph 2.3 mph 40 % 0.00 in
18:20 91.3 °F 64.3 °F 29.70 in WNW 1.2 mph   41 % 0.00 in
18:25 91.2 °F 64.2 °F 29.70 in WNW 2.3 mph 2.3 mph 41 % 0.00 in
18:30 91.4 °F 64.4 °F 29.70 in NW 2.0 mph 2.0 mph 41 % 0.00 in
18:35 91.2 °F 63.5 °F 29.71 in WNW 2.3 mph 2.3 mph 40 % 0.00 in
18:40 91.0 °F 64.0 °F 29.71 in NW 1.2 mph 1.2 mph 41 % 0.00 in
18:45 90.6 °F 64.4 °F 29.71 in NW 1.2 mph 1.2 mph 42 % 0.00 in
18:50 90.3 °F 64.1 °F 29.70 in WNW 2.3 mph 2.3 mph 42 % 0.00 in
18:55 90.0 °F 63.8 °F 29.71 in WNW 1.2 mph 1.2 mph 42 % 0.00 in
19:00 89.7 °F 63.6 °F 29.71 in WNW 1.2 mph   42 % 0.00 in
19:05 89.4 °F 64.0 °F 29.71 in Calm     43 % 0.00 in
19:10 89.1 °F 64.3 °F 29.71 in Calm     44 % 0.00 in
19:15 88.9 °F 63.5 °F 29.71 in Calm     43 % 0.00 in
19:20 88.6 °F 64.5 °F 29.71 in Calm     45 % 0.00 in
19:25 88.3 °F 66.7 °F 29.72 in Calm     49 % 0.00 in
19:30 87.7 °F 65.6 °F 29.72 in Calm     48 % 0.00 in
19:35 87.3 °F 67.0 °F 29.72 in Calm     51 % 0.00 in
19:40 86.9 °F 67.7 °F 29.72 in Calm     53 % 0.00 in
19:41 86.9 °F 67.7 °F 29.72 in Calm     53 % 0.00 in
19:46 86.5 °F 66.2 °F 29.72 in Calm     51 % 0.00 in
19:51 86.2 °F 67.1 °F 29.72 in Calm     53 % 0.00 in
19:56 85.9 °F 67.3 °F 29.72 in Calm     54 % 0.00 in
20:01 85.5 °F 67.5 °F 29.72 in Calm     55 % 0.00 in
20:06 85.1 °F 66.6 °F 29.72 in Calm     54 % 0.00 in
20:11 84.8 °F 66.8 °F 29.72 in Calm     55 % 0.00 in
20:16 84.5 °F 66.6 °F 29.72 in Calm     55 % 0.00 in
20:21 84.3 °F 65.8 °F 29.73 in Calm     54 % 0.00 in
20:26 84.1 °F 65.7 °F 29.73 in Calm     54 % 0.00 in
20:31 84.0 °F 67.1 °F 29.73 in Calm     57 % 0.00 in
20:36 83.9 °F 67.5 °F 29.73 in Calm     58 % 0.00 in
20:41 83.8 °F 67.4 °F 29.74 in Calm     58 % 0.00 in
20:46 83.6 °F 68.2 °F 29.74 in Calm     60 % 0.00 in
20:51 83.2 °F 67.9 °F 29.74 in Calm     60 % 0.00 in
20:56 82.8 °F 67.0 °F 29.74 in Calm     59 % 0.00 in
21:01 82.7 °F 66.9 °F 29.75 in Calm     59 % 0.00 in
21:06 82.7 °F 66.9 °F 29.75 in Calm     59 % 0.00 in
21:11 82.6 °F 66.8 °F 29.75 in Calm     59 % 0.00 in
21:16 82.7 °F 66.4 °F 29.75 in WSW 1.2 mph   58 % 0.00 in
21:21 83.0 °F 65.7 °F 29.75 in Calm     56 % 0.00 in
21:26 83.3 °F 65.4 °F 29.75 in WSW 1.2 mph 1.2 mph 55 % 0.00 in
21:31 83.3 °F 66.0 °F 29.76 in Calm     56 % 0.00 in
21:36 83.1 °F 66.3 °F 29.76 in Calm     57 % 0.00 in
21:41 82.7 °F 66.4 °F 29.76 in Calm     58 % 0.00 in
21:46 82.0 °F 66.7 °F 29.76 in Calm     60 % 0.00 in
21:51 81.6 °F 65.9 °F 29.76 in Calm     59 % 0.00 in
21:56 81.3 °F 66.6 °F 29.76 in Calm     61 % 0.00 in
21:57 81.2 °F 66.5 °F 29.76 in Calm     61 % 0.00 in
22:02 80.9 °F 67.1 °F 29.77 in Calm     63 % 0.00 in
22:07 80.5 °F 66.3 °F 29.77 in Calm     62 % 0.00 in
22:12 80.3 °F 67.0 °F 29.77 in Calm     64 % 0.00 in
22:17 79.7 °F 66.4 °F 29.77 in Calm     64 % 0.00 in
22:22 79.4 °F 66.6 °F 29.77 in Calm     65 % 0.00 in
22:27 79.3 °F 67.0 °F 29.77 in Calm     66 % 0.00 in
22:32 79.2 °F 66.9 °F 29.77 in Calm     66 % 0.00 in
22:37 79.0 °F 67.5 °F 29.77 in Calm     68 % 0.00 in
22:42 78.8 °F 67.3 °F 29.77 in Calm     68 % 0.00 in
22:47 78.5 °F 66.6 °F 29.77 in Calm     67 % 0.00 in
22:52 78.3 °F 66.4 °F 29.77 in Calm     67 % 0.00 in
22:57 78.2 °F 65.9 °F 29.78 in Calm     66 % 0.00 in
23:02 78.1 °F 66.7 °F 29.78 in Calm     68 % 0.00 in
23:07 78.0 °F 66.2 °F 29.78 in Calm     67 % 0.00 in
23:12 77.9 °F 66.1 °F 29.78 in Calm     67 % 0.00 in
23:17 77.7 °F 67.1 °F 29.78 in Calm     70 % 0.00 in
23:23 77.6 °F 66.6 °F 29.78 in Calm     69 % 0.00 in
23:28 77.4 °F 66.4 °F 29.79 in Calm     69 % 0.00 in
23:33 77.1 °F 66.1 °F 29.78 in Calm     69 % 0.00 in
23:38 77.0 °F 66.5 °F 29.79 in Calm     70 % 0.00 in
23:43 76.7 °F 66.6 °F 29.79 in Calm     71 % 0.00 in
23:48 76.3 °F 66.6 °F 29.79 in Calm     72 % 0.00 in
23:53 75.9 °F 66.6 °F 29.79 in Calm     73 % 0.00 in
23:58 75.6 °F 66.7 °F 29.79 in Calm     74 % 0.00 in
Park Place, Exeter, Tulare County, California, USA
Compliments of Weather Underground - 2.75 mb